Location: Baia Mare
(47.6567°N, 23.5850°E)
Time: 12:28:08
(UTC+02:00)

ISS - Pass Details

Date: 30 January 2019
Orbit: 404 x 407 km, 51.6° (Epoch: 16 January)

Event Time Altitude Azimuth Distance (km) Brightness Sun altitude
Rises 18:19:52 0° 265° (W) 2,322 2.0 -9.8°
Reaches altitude 10° 18:21:59 10° 271° (W) 1,463 0.4 -10.1°
Maximum altitude 18:25:11 48° 347° (NNW) 539 -3.2 -10.7°
Enters shadow 18:27:30 17° 59° (ENE) 1,129 -2.2 -11.0°
